This demonstration page uses our WeatherBlox Daily Observations layout. Learn more.

Left ArrowRight Arrow

34.16533, -84.80231

Hourly Observations for October 29, 2021

Temp ( °F °C ) Dew Point ( °F °C ) Humidity (%) Winds ( mph kmh ) Pressure ( in mb ) Visibility ( mi km ) Precip ( " mm )
12:15 am 00:15 Mostly Cloudy 54 12 54 12 100 100 N N/A 29.53 1000 7 11 N/A
12:35 am 00:35 Cloudy with Mist and Fog 54 12 54 12 100 100 N N/A 29.52 1000 6 10 N/A
12:55 am 00:55 Cloudy 54 12 54 12 100 100 N N/A 29.52 1000 7 11 0.01 0.25
1:15 am 01:15 Cloudy 54 12 54 12 100 100 N N/A 29.52 1000 7 11 N/A
1:35 am 01:35 Cloudy 54 12 54 12 100 100 N N/A 29.52 1000 7 11 N/A
1:55 am 01:55 Cloudy with Light Rain 54 12 54 12 100 100 N N/A 29.52 1000 7 11 N/A
2:15 am 02:15 Cloudy with Light Rain 54 12 54 12 100 100 N N/A 29.51 999 8 13 N/A
2:35 am 02:35 Cloudy 54 12 54 12 100 100 N N/A 29.51 999 9 14 N/A
2:55 am 02:55 Cloudy 54 12 52 11 94 94 N N/A 29.51 999 10 16 N/A
3:15 am 03:15 Cloudy 54 12 52 11 94 94 N N/A 29.50 999 10 16 N/A
3:35 am 03:35 Cloudy 54 12 54 12 100 100 N N/A 29.50 999 10 16 N/A
3:55 am 03:55 Cloudy 54 12 52 11 94 94 N N/A 29.50 999 10 16 N/A
4:15 am 04:15 Cloudy 55 13 52 11 88 88 S 3 6 29.49 999 10 16 N/A
4:35 am 04:35 Cloudy 54 12 52 11 94 94 S 3 6 29.49 999 10 16 N/A
4:55 am 04:55 Cloudy 54 12 52 11 94 94 S 5 7 29.49 999 10 16 N/A
5:15 am 05:15 Cloudy 54 12 52 11 94 94 S 5 7 29.50 999 10 16 N/A
5:35 am 05:35 Cloudy 54 12 52 11 94 94 SSW 3 6 29.49 999 10 16 N/A
5:55 am 05:55 Cloudy 54 12 52 11 94 94 N N/A 29.49 999 10 16 N/A
6:15 am 06:15 Cloudy 54 12 52 11 94 94 S 5 7 29.49 999 10 16 N/A
6:35 am 06:35 Cloudy 54 12 52 11 94 94 N N/A 29.49 999 10 16 N/A
6:55 am 06:55 Cloudy 54 12 52 11 94 94 S 3 6 29.49 999 10 16 N/A
7:15 am 07:15 Cloudy with Light Rain 54 12 52 11 94 94 N N/A 29.49 999 5 8 N/A
7:35 am 07:35 Cloudy 54 12 52 11 94 94 N N/A 29.50 999 10 16 N/A
7:55 am 07:55 Cloudy 52 11 52 11 100 100 N N/A 29.51 999 9 14 N/A
8:15 am 08:15 Cloudy 54 12 50 10 88 88 N N/A 29.50 999 9 14 N/A
8:35 am 08:35 Cloudy 54 12 50 10 88 88 VRB 7 11 29.51 999 9 14 N/A
8:55 am 08:55 Cloudy 52 11 50 10 94 94 VRB 5 7 29.53 1000 10 16 N/A
9:15 am 09:15 Cloudy 54 12 50 10 88 88 VRB 3 6 29.53 1000 10 16 N/A
9:35 am 09:35 Cloudy 54 12 50 10 88 88 SW 7 11 29.53 1000 10 16 N/A
9:55 am 09:55 Cloudy 54 12 50 10 88 88 VRB 5 7 29.54 1000 10 16 N/A
10:15 am 10:15 Mostly Cloudy 54 12 50 10 88 88 VRB 5 7 29.54 1000 10 16 N/A
10:35 am 10:35 Cloudy 54 12 50 10 88 88 VRB 7 11 29.55 1001 10 16 N/A
10:55 am 10:55 Mostly Cloudy 54 12 50 10 88 88 SW 8 13 29.55 1001 10 16 N/A
11:15 am 11:15 Cloudy 54 12 48 9 82 82 SSW 8 13 29.55 1001 10 16 N/A
11:35 am 11:35 Mostly Cloudy 54 12 48 9 82 82 SSW 9 15 29.56 1001 10 16 N/A
11:55 am 11:55 Cloudy 54 12 48 9 82 82 SW 5 7 29.56 1001 10 16 N/A
12:15 pm 12:15 Cloudy with Light Rain 52 11 50 10 94 94 VRB 5 7 29.57 1001 3 5 N/A
12:35 pm 12:35 Cloudy 55 13 50 10 82 82 VRB 6 9 29.56 1001 10 16 N/A
12:55 pm 12:55 Cloudy 55 13 48 9 77 77 VRB 7 11 29.56 1001 10 16 N/A
1:15 pm 13:15 Cloudy 55 13 48 9 77 77 S 7 11 29.55 1001 10 16 N/A
1:35 pm 13:35 Mostly Cloudy 55 13 48 9 77 77 S 6 9 29.55 1001 10 16 N/A
1:55 pm 13:55 Mostly Cloudy 55 13 48 9 77 77 SSW 7 11 29.55 1001 10 16 N/A
2:15 pm 14:15 Cloudy 55 13 48 9 77 77 SSW 6 9 29.55 1001 10 16 N/A
2:35 pm 14:35 Cloudy 55 13 48 9 77 77 SSW 5 7 29.55 1001 10 16 N/A
2:55 pm 14:55 Mostly Cloudy 55 13 46 8 72 72 VRB 6 9 29.55 1001 9 14 N/A
3:15 pm 15:15 Cloudy 54 12 48 9 82 82 VRB 3 6 29.55 1001 10 16 N/A
3:35 pm 15:35 Cloudy 55 13 48 9 77 77 VRB 6 9 29.55 1001 10 16 N/A
3:55 pm 15:55 Mostly Cloudy 55 13 48 9 77 77 VRB 7 11 29.55 1001 10 16 N/A
4:15 pm 16:15 Mostly Cloudy 54 12 48 9 82 82 VRB 7 11 29.56 1001 10 16 N/A
4:35 pm 16:35 Mostly Cloudy with Light Rain 52 11 48 9 88 88 VRB 7 11 29.57 1001 3 4 N/A
4:55 pm 16:55 Mostly Cloudy with Light Rain 52 11 50 10 94 94 VRB 3 6 29.58 1002 8 13 0.01 0.25
5:15 pm 17:15 Mostly Cloudy with Light Rain 52 11 50 10 94 94 SW 3 6 29.58 1002 8 13 N/A
5:35 pm 17:35 Mostly Cloudy with Light Rain 52 11 50 10 94 94 VRB 5 7 29.58 1002 9 14 N/A
5:55 pm 17:55 Mostly Cloudy with Light Rain 52 11 48 9 88 88 SSW 5 7 29.59 1002 7 11 N/A
6:15 pm 18:15 Mostly Cloudy with Light Rain 50 10 48 9 94 94 SSW 3 6 29.59 1002 9 14 N/A
6:35 pm 18:35 Cloudy with Light Rain 50 10 48 9 94 94 VRB 3 6 29.60 1002 9 14 N/A
6:55 pm 18:55 Mostly Cloudy 50 10 50 10 100 100 VRB 3 6 29.60 1002 10 16 N/A
7:15 pm 19:15 Cloudy 50 10 48 9 94 94 N N/A 29.60 1002 7 11 N/A
7:35 pm 19:35 Cloudy 50 10 50 10 100 100 SSW 5 7 29.60 1002 10 16 N/A
7:55 pm 19:55 Cloudy with Mist and Fog 50 10 50 10 100 100 VRB 3 6 29.61 1003 5 8 N/A
8:15 pm 20:15 Cloudy with Mist and Fog 50 10 50 10 100 100 N N/A 29.61 1003 6 10 N/A
8:35 pm 20:35 Cloudy with Light Rain 50 10 50 10 100 100 SSW 3 6 29.62 1003 3 5 N/A
8:55 pm 20:55 Cloudy 50 10 50 10 100 100 VRB 3 6 29.62 1003 7 11 0.01 0.25
9:15 pm 21:15 Cloudy 50 10 50 10 100 100 N N/A 29.62 1003 9 14 N/A
9:35 pm 21:35 Cloudy 50 10 50 10 100 100 W 5 7 29.63 1003 8 13 N/A
9:55 pm 21:55 Cloudy 52 11 50 10 94 94 W 5 7 29.63 1003 10 16 N/A
10:15 pm 22:15 Cloudy 52 11 50 10 94 94 WSW 5 7 29.64 1004 9 14 N/A
10:35 pm 22:35 Cloudy with Mist and Fog 52 11 50 10 94 94 N N/A 29.64 1004 6 10 N/A
10:55 pm 22:55 Cloudy 52 11 50 10 94 94 N N/A 29.64 1004 10 16 N/A
11:15 pm 23:15 Cloudy 52 11 50 10 94 94 N N/A 29.65 1004 10 16 N/A
11:35 pm 23:35 Cloudy 52 11 50 10 94 94 N N/A 29.65 1004 10 16 N/A
11:55 pm 23:55 Cloudy 52 11 50 10 94 94 N N/A 29.65 1004 9 14 N/A

Powered by AerisWeather